This demonstration page uses our WeatherBlox Daily Observations layout. Learn more.

Left ArrowRight Arrow

39.51506, -84.39828

Hourly Observations for April 6, 2020

Temp ( °F °C ) Dew Point ( °F °C ) Humidity (%) Winds ( mph kmh ) Pressure ( in mb ) Visibility ( mi km ) Precip ( " mm )
12:15 am 00:15 Cloudy 49 9.5 44 6.5 82 82 NNE 6 9 30.16 1021 10 16 N/A
12:35 am 00:35 Cloudy 49 9.4 44 6.6 83 83 NNE 7 11 30.15 1021 10 16 N/A
12:55 am 00:55 Cloudy 49 9.2 44 6.6 84 84 NNE 5 7 30.16 1021 10 16 N/A
1:15 am 01:15 Cloudy 49 9.2 43 6.3 82 82 NE 7 11 30.16 1021 10 16 N/A
1:35 am 01:35 Cloudy 48 8.9 42 5.4 79 79 NNE 7 11 30.16 1021 10 16 N/A
1:55 am 01:55 Cloudy 47 8.3 40 4.5 77 77 NNE 7 11 30.16 1021 10 16 N/A
2:15 am 02:15 Cloudy 46 7.9 40 4.2 78 78 N 6 9 30.16 1021 10 16 N/A
2:35 am 02:35 Cloudy 45 7.4 39 3.8 78 78 NNE 7 11 30.17 1022 10 16 N/A
2:55 am 02:55 Cloudy 45 7.1 38 3.6 79 79 NNE 7 11 30.17 1022 10 16 N/A
3:15 am 03:15 Mostly Cloudy 44 6.6 38 3.5 81 81 N 3 6 30.16 1021 10 16 N/A
3:35 am 03:35 Partly Cloudy 43 5.9 38 3.2 83 83 N 7 11 30.16 1021 10 16 N/A
3:55 am 03:55 Clear 42 5.7 38 3.4 85 85 NNE 5 7 30.16 1021 10 16 N/A
4:15 am 04:15 Clear 42 5.3 38 3.4 88 88 N 6 9 30.16 1021 10 16 N/A
4:35 am 04:35 Clear 41 4.9 38 3.3 90 90 N N/A 30.15 1021 10 16 N/A
4:55 am 04:55 Clear 41 4.9 38 3.3 90 90 NNE 3 6 30.15 1021 10 16 N/A
5:15 am 05:15 Clear 40 4.4 37 3 91 91 N N/A 30.16 1021 10 16 N/A
5:35 am 05:35 Clear 39 4.1 37 2.8 91 91 N N/A 30.16 1021 10 16 N/A
5:55 am 05:55 Clear 40 4.6 37 3 89 89 N 3 6 30.15 1021 10 16 N/A
6:15 am 06:15 Cloudy 40 4.4 38 3.4 93 93 N 3 6 30.16 1021 7 11 N/A
6:35 am 06:35 Cloudy 41 4.9 38 3.5 91 91 NE 6 9 30.16 1021 10 16 N/A
6:55 am 06:55 Cloudy 41 5.1 38 3.5 90 90 NNE 3 6 30.17 1022 10 16 N/A
7:15 am 07:15 Cloudy 41 5.1 38 3.3 88 88 NE 3 6 30.17 1022 7 11 N/A
7:35 am 07:35 Cloudy 41 5.1 38 3.4 89 89 NNE 3 6 30.18 1022 7 11 N/A
7:55 am 07:55 Cloudy 41 5 38 3.4 90 90 NNE 6 9 30.18 1022 10 16 N/A
8:15 am 08:15 Cloudy 41 5.2 38 3.4 88 88 NNE 5 7 30.19 1022 7 11 N/A
8:35 am 08:35 Cloudy 42 5.5 38 3.6 88 88 NNE 6 9 30.20 1023 7 11 N/A
8:55 am 08:55 Cloudy 43 5.9 39 3.7 86 86 NNE 6 9 30.20 1023 10 16 N/A
9:15 am 09:15 Partly Cloudy 44 6.5 39 4 84 84 NNE 5 7 30.20 1023 10 16 N/A
9:35 am 09:35 Sunny 45 7.1 40 4.3 83 83 NE 5 7 30.20 1023 10 16 N/A
9:55 am 09:55 Sunny 47 8.1 40 4.6 79 79 N N/A 30.19 1022 10 16 N/A
10:15 am 10:15 Sunny 48 8.8 41 5.2 78 78 N N/A 30.18 1022 10 16 N/A
10:35 am 10:35 Sunny 49 9.6 41 5.2 74 74 N N/A 30.18 1022 10 16 N/A
10:55 am 10:55 Sunny 51 10.4 41 5 69 69 N N/A 30.18 1022 10 16 N/A
11:35 am 11:35 Partly Cloudy 54 12.2 40 4.4 59 59 S 3 6 30.15 1021 10 16 N/A
12:35 pm 12:35 Sunny 57 14 45 7.4 65 65 SSW 3 6 30.14 1021 10 16 N/A
12:55 pm 12:55 Sunny 58 14.4 46 7.5 63 63 SSW 3 6 30.13 1020 10 16 N/A
1:15 pm 13:15 Sunny 59 15.2 47 8.1 63 63 SSE 7 11 30.12 1020 10 16 N/A
1:35 pm 13:35 Sunny 60 15.4 46 7.6 60 60 SSW 3 6 30.11 1019 10 16 N/A
1:55 pm 13:55 Sunny 60 15.8 46 8 60 60 WSW 6 9 30.09 1019 10 16 N/A
2:15 pm 14:15 Sunny 62 16.7 47 8.3 58 58 SW 6 9 30.09 1019 10 16 N/A
2:35 pm 14:35 Sunny 63 17.3 49 9.2 59 59 SSW 5 7 30.08 1019 10 16 N/A
2:55 pm 14:55 Sunny 64 17.5 49 9.5 60 60 S 5 7 30.07 1018 10 16 N/A
3:15 pm 15:15 Sunny 64 17.6 48 8.8 57 57 SSW 3 6 30.06 1018 10 16 N/A
3:35 pm 15:35 Sunny 64 18 49 9.5 58 58 SSW 10 17 30.05 1018 10 16 N/A
3:55 pm 15:55 Sunny 65 18.5 49 9.5 56 56 S 10 17 30.04 1017 10 16 N/A
4:15 pm 16:15 Partly Cloudy 65 18.3 50 10 59 59 SW 5 7 30.03 1017 10 16 N/A
4:35 pm 16:35 Sunny 66 18.7 51 10.5 59 59 SW 12 19 30.02 1017 10 16 N/A
4:55 pm 16:55 Partly Cloudy 66 19.1 52 10.9 59 59 SSW 12 19 30.02 1016 10 16 N/A
5:15 pm 17:15 Sunny 65 18.6 51 10.6 60 60 SSW 12 19 30.02 1017 10 16 N/A
5:35 pm 17:35 Partly Cloudy 65 18.6 51 10.6 60 60 SSW 12 19 30.02 1017 10 16 N/A
5:55 pm 17:55 Partly Cloudy 66 18.8 50 10.2 58 58 SSW 10 17 30.01 1016 10 16 N/A
6:15 pm 18:15 Sunny 66 19.1 51 10.4 57 57 W 10 17 30.01 1016 10 16 N/A
6:35 pm 18:35 Mostly Cloudy 65 18.6 51 10.3 59 59 SW 9 15 30.01 1016 10 16 N/A
6:55 pm 18:55 Mostly Cloudy 65 18.4 51 10.8 61 61 SSW 6 9 30.01 1016 10 16 N/A
7:15 pm 19:15 Cloudy 65 18.1 52 11.3 65 65 SW 5 7 30.01 1016 10 16 N/A
7:35 pm 19:35 Cloudy 64 17.8 52 11.2 65 65 N N/A 30.00 1016 10 16 N/A
7:55 pm 19:55 Cloudy 65 18.1 51 10.7 62 62 N N/A 30.00 1016 10 16 N/A
8:15 pm 20:15 Cloudy 64 17.5 53 11.4 68 68 N N/A 30.00 1016 10 16 N/A
8:35 pm 20:35 Cloudy 62 16.4 54 12.4 77 77 N N/A 30.00 1016 10 16 N/A
8:55 pm 20:55 Cloudy 60 15.8 55 12.6 81 81 N N/A 29.99 1016 10 16 N/A
9:15 pm 21:15 Cloudy 61 15.9 54 12.1 78 78 N N/A 30.00 1016 10 16 N/A
9:35 pm 21:35 Cloudy 59 15 55 12.7 86 86 N N/A 30.01 1016 10 16 N/A
9:55 pm 21:55 Cloudy 59 14.9 54 12.3 85 85 N N/A 30.02 1016 10 16 N/A
10:15 pm 22:15 Cloudy 59 15 54 12.2 83 83 N N/A 30.02 1016 10 16 N/A
10:35 pm 22:35 Cloudy 58 14.4 55 12.8 90 90 N N/A 30.02 1017 10 16 N/A
10:55 pm 22:55 Cloudy 58 14.4 55 12.5 88 88 N N/A 30.01 1016 10 16 N/A
11:15 pm 23:15 Cloudy 58 14.4 55 12.6 89 89 N N/A 30.01 1016 10 16 N/A
11:35 pm 23:35 Cloudy 57 13.8 54 12.4 91 91 N N/A 30.01 1016 10 16 N/A
11:55 pm 23:55 Mostly Cloudy 57 13.8 54 12 89 89 N N/A 30.00 1016 10 16 N/A

Powered by AerisWeather